User: anonymous   Login
Location: Tyler Bend Campground
(35.9875°N, 92.7606°W)
Time: 11:49:01
(UTC-05:00)
Language:

Iridium 39 - Orbit

View from above orbital plane
View from above orbital plane
View from above satellite
View from above satellite

Ground track
Ground track

The orbit data is extracted from the following two-line orbital elements,

1 25042U 97069D   18140.80661775 +.00000095 +00000-0 +20946-4 0  9997
2 25042 086.3959 235.1342 0016681 269.7295 090.1996 14.46238957075259
Epoch (UTC): 20 May 2018 19:21:31
Eccentricity: 0.0016681
inclination: 86.3959°
perigee height: 726 km
apogee height: 750 km
right ascension of ascending node: 235.1342°
argument of perigee: 269.7295°
revolutions per day: 14.46238957
mean anomaly at epoch: 90.1996°
orbit number at epoch: 7525

The dashed part of the orbit path shows where the satellite is in the earth's shadow,  

DLR